Home > Weather > Sidney > Past weeks

Flag for U.S.A. Weather for the Past 2 Weeks in Sidney, Montana, U.S.A.

Now
34 °F

Overcast.


Feels Like: 29 °F
Forecast: 25 / 34 °F
Wind: 6 mph from North

Location: Sidney-Richland

Current Time: Feb 10, 2016 at 6:23:31 PM

Latest Report: Feb 10, 2016 at 5:15 PM


Visibility: 10 mi

Pressure: 30.13 "Hg (27.99 "Hg at 591m altitude)

Humidity: 75%

Dew point: 27 °F

Location of SidneyLocation

Historic Weather in Sidney — Graph

°F

Sidney Temperature Yesterday

Maximum temperature yesterday: 45 °F (at 2:35 PM)
Minimum temperature yesterday: 27 °F (at 10:15 PM)
Average temperature yesterday: 34 °F

High & Low Weather Summary for the Past Weeks

 TemperatureHumidityPressure
High54 °F (Feb 6, 11:15 AM)100% (Feb 3, 4:35 AM)30.39 "Hg (Feb 3, 4:35 AM)
Low7 °F (Feb 4, 5:35 AM)28% (Feb 6, 1:55 PM)29.46 "Hg (Jan 30, 12:55 AM)
Average32 °F69%29.94 "Hg
* Reported Jan 26 4:35 PM — Feb 10 4:55 PM, Sidney, Weather by CustomWeather, © 2016

Note: Actual official high and low records may vary slightly from our data, if they occured in-between our weather recording intervals... More about our weather records

Advertising

Sidney Weather History for the Previous 24 Hours

 ConditionsComfort  
Time TempWeatherWind HumidityBarometerVisibility
4:55 PM
Wed, Feb 10
36 °FOvercast.12 mph65%30.13 "Hg10 mi
4:15 PM36 °FOvercast.9 mph70%30.12 "Hg10 mi
3:55 PM36 °FOvercast.14 mph70%30.12 "Hg10 mi
3:35 PM36 °FOvercast.12 mph70%30.11 "Hg10 mi
2:55 PM36 °FOvercast.15 mph70%30.09 "Hg10 mi
2:35 PM36 °FOvercast.16 mph75%30.08 "Hg10 mi
2:15 PM36 °FOvercast.13 mph75%30.08 "Hg10 mi
1:55 PM37 °FOvercast.12 mph70%30.07 "Hg10 mi
1:35 PM36 °FOvercast.13 mph75%30.08 "Hg10 mi
1:15 PM36 °FOvercast.15 mph75%30.07 "Hg10 mi
12:55 PM37 °FOvercast.15 mph75%30.06 "Hg10 mi
12:35 PM37 °FOvercast.14 mph70%30.05 "Hg10 mi
12:15 PM37 °FOvercast.10 mph70%30.04 "Hg10 mi
11:55 AM37 °FOvercast.14 mph70%30.04 "Hg10 mi
11:35 AM37 °FOvercast.15 mph70%30.04 "Hg10 mi
11:15 AM37 °FOvercast.12 mph75%30.03 "Hg10 mi
10:55 AM37 °FOvercast.16 mph70%30.02 "Hg10 mi
10:35 AM37 °FMostly cloudy.15 mph70%30.02 "Hg10 mi
10:15 AM37 °FMostly cloudy.15 mph70%30.01 "Hg10 mi
9:55 AM39 °FOvercast.16 mph65%30.00 "Hg10 mi
9:35 AM37 °FOvercast.15 mph70%29.98 "Hg10 mi
9:15 AM37 °FPartly sunny.17 mph70%29.97 "Hg10 mi
8:55 AM39 °FSunny.22 mph65%29.96 "Hg10 mi
8:35 AM37 °FSunny.14 mph70%29.96 "Hg10 mi
8:15 AM37 °FSunny.17 mph65%29.94 "Hg10 mi
7:55 AM36 °FSunny.14 mph75%29.92 "Hg10 mi
7:35 AM36 °FSunny.15 mph70%29.91 "Hg10 mi
7:15 AM36 °FSunny.16 mph70%29.89 "Hg10 mi
6:55 AM36 °FClear.17 mph70%29.89 "Hg10 mi
6:35 AM36 °FClear.16 mph75%29.87 "Hg10 mi
6:15 AM36 °FClear.16 mph70%29.87 "Hg10 mi
5:55 AM37 °FClear.16 mph70%29.86 "Hg10 mi
5:35 AM37 °FClear.13 mph75%29.85 "Hg10 mi
5:15 AM25 °FClear.3 mph86%29.84 "Hg10 mi
4:55 AM25 °FClear.6 mph86%29.83 "Hg10 mi
4:35 AM25 °FClear.No wind80%29.83 "Hg10 mi
4:15 AM27 °FClear.7 mph86%29.83 "Hg10 mi
3:55 AM27 °FClear.6 mph86%29.83 "Hg10 mi
3:35 AM27 °FClear.8 mph86%29.83 "Hg10 mi
3:15 AM25 °FClear.7 mph86%29.83 "Hg10 mi
2:55 AM25 °FClear.6 mph86%29.84 "Hg10 mi
2:35 AM27 °FClear.9 mph93%29.85 "Hg10 mi
2:15 AM27 °FClear.7 mph80%29.85 "Hg10 mi
1:55 AM25 °FClear.8 mph86%29.85 "Hg10 mi
1:35 AM25 °FClear.6 mph86%29.86 "Hg10 mi
1:15 AM25 °FClear.6 mph86%29.87 "Hg10 mi
12:55 AM25 °FClear.6 mph80%29.88 "Hg10 mi
12:35 AM25 °FClear.6 mph86%29.89 "Hg10 mi
12:15 AM25 °FClear.5 mph86%29.89 "Hg10 mi
11:55 PM
Tue, Feb 9
27 °FPassing clouds.7 mph80%29.90 "Hg10 mi
11:35 PM27 °FPassing clouds.8 mph86%29.91 "Hg10 mi
11:15 PM27 °FClear.7 mph80%29.92 "Hg10 mi
10:55 PM27 °FClear.5 mph80%29.93 "Hg10 mi
10:15 PM27 °FClear.No wind80%29.95 "Hg10 mi
9:55 PM28 °FClear.3 mph74%29.95 "Hg10 mi
9:35 PM28 °FClear.No wind74%29.96 "Hg10 mi
8:55 PM28 °FClear.No wind74%29.97 "Hg10 mi
8:35 PM28 °FClear.3 mph69%29.98 "Hg10 mi
7:55 PM32 °FClear.No wind64%30.01 "Hg10 mi
7:35 PM30 °FClear.3 mph69%30.01 "Hg10 mi
7:15 PM30 °FClear.No wind69%30.02 "Hg10 mi
6:35 PM30 °FClear.No wind64%30.04 "Hg10 mi
Weather by CustomWeather, © 2016

See weather overviewHow to use our weather pages